TimeMDT,TemperatureF,Dew PointF,Humidity,Sea Level PressureIn,VisibilityMPH,Wind Direction,Wind SpeedMPH,Gust SpeedMPH,PrecipitationIn,Events,Conditions,WindDirDegrees,DateUTC
12:53 AM,64.0,55.0,73,29.76,10.0,Calm,Calm,-,N/A,,Clear,0,2013-07-25 06:53:00
1:53 AM,64.0,55.0,73,29.82,10.0,ESE,4.6,-,N/A,,Clear,120,2013-07-25 07:53:00
2:53 AM,63.0,55.9,78,29.78,10.0,Calm,Calm,-,N/A,,Clear,0,2013-07-25 08:53:00
3:53 AM,62.1,55.0,78,29.75,10.0,Calm,Calm,-,N/A,,Clear,0,2013-07-25 09:53:00
4:53 AM,59.0,55.0,87,29.76,10.0,Calm,Calm,-,N/A,,Clear,0,2013-07-25 10:53:00
5:53 AM,55.9,54.0,93,29.83,10.0,Calm,Calm,-,N/A,,Clear,0,2013-07-25 11:53:00
6:53 AM,57.9,55.0,90,29.88,10.0,NNE,3.5,-,N/A,,Clear,30,2013-07-25 12:53:00
7:53 AM,62.1,57.0,84,29.86,10.0,East,4.6,-,N/A,,Clear,80,2013-07-25 13:53:00
8:53 AM,64.9,55.9,73,29.86,10.0,Calm,Calm,-,N/A,,Clear,0,2013-07-25 14:53:00
9:53 AM,68.0,55.9,65,29.86,10.0,SSW,3.5,-,N/A,,Clear,200,2013-07-25 15:53:00
10:53 AM,72.0,57.0,59,29.83,10.0,WNW,3.5,-,N/A,,Clear,300,2013-07-25 16:53:00
11:53 AM,73.9,55.0,52,29.83,10.0,Calm,Calm,-,N/A,,Clear,0,2013-07-25 17:53:00
12:53 PM,78.1,54.0,43,29.80,10.0,SE,3.5,-,N/A,,Clear,130,2013-07-25 18:53:00
1:53 PM,81.0,52.0,36,29.74,10.0,Calm,Calm,-,N/A,,Clear,0,2013-07-25 19:53:00
2:53 PM,81.0,51.1,35,29.73,10.0,Calm,Calm,-,N/A,,Partly Cloudy,0,2013-07-25 20:53:00
3:19 PM,80.6,50.0,34,30.25,10.0,North,11.5,-,N/A,Thunderstorm,Mostly Cloudy,10,2013-07-25 21:19:00
3:34 PM,80.6,51.8,37,30.25,10.0,NNW,12.7,-,0.00,Rain,Light Rain,340,2013-07-25 21:34:00
3:53 PM,77.0,55.0,47,29.78,10.0,NW,9.2,-,0.00,,Partly Cloudy,320,2013-07-25 21:53:00
4:53 PM,72.0,57.9,61,29.83,10.0,West,9.2,-,N/A,,Clear,260,2013-07-25 22:53:00
5:53 PM,71.1,57.0,61,29.86,10.0,West,5.8,-,N/A,,Clear,260,2013-07-25 23:53:00
6:53 PM,72.0,57.9,61,29.83,10.0,Calm,Calm,-,N/A,,Clear,0,2013-07-26 00:53:00
7:53 PM,71.1,55.9,59,29.82,10.0,WSW,3.5,-,N/A,,Clear,240,2013-07-26 01:53:00
8:53 PM,70.0,57.0,63,29.81,10.0,Calm,Calm,-,N/A,,Clear,0,2013-07-26 02:53:00
9:53 PM,66.0,57.9,75,29.85,10.0,Calm,Calm,-,N/A,,Clear,0,2013-07-26 03:53:00
10:53 PM,69.1,57.9,68,29.81,10.0,SW,9.2,-,N/A,,Clear,220,2013-07-26 04:53:00
11:53 PM,68.0,57.9,70,29.83,10.0,SW,8.1,-,N/A,,Clear,220,2013-07-26 05:53:00